Welcome to the New NWS' Forecast!
Most changes are behind the scenes, but click here for differences you might notice.

Regional Weather Roundup (RWR)

Issued by National Weather Service (NWS)

                            
000
ASUS46 KSEW 150610
RWRWA 

WASHINGTON REGIONAL WEATHER ROUNDUP
NATIONAL WEATHER SERVICE SEATTLE WA
1000 PM PST WED NOV 14 2018

NOTE:"FAIR" INDICATES FEW OR NO CLOUDS BELOW 12,000 FEET WITH NO 
SIGNIFICANT WEATHER AND/OR OBSTRUCTIONS TO VISIBILITY.

WAZ507-509-555>559-150700-
SEATTLE, TACOMA, EVERETT, AND VICINITY
  
CITY           SKY/WX    TMP DP  RH WIND       PRES   REMARKS
EVERETT        PTCLDY    48  46  93 S6        30.37R                  
6HR MIN TEMP:  48; 6HR MAX TEMP:  52;                                

BOEING FIELD   CLOUDY    53  47  79 S6        30.38R                  
6HR MIN TEMP:  53; 6HR MAX TEMP:  55;                                

RENTON         CLOUDY    54  47  77 S8        30.38R                  
6HR MIN TEMP:  53; 6HR MAX TEMP:  57;                                

SEATAC AIRPORT CLOUDY    52  47  83 S8        30.38R                  
6HR MIN TEMP:  52; 6HR MAX TEMP:  55;                                

JBLM-MCCHORD   CLOUDY    48  48 100 S3        30.39R                  
6HR MIN TEMP:  46; 6HR MAX TEMP:  55;                                

PUYALLUP       CLOUDY    43  43 100 CALM      30.39R                  
BREMERTON      CLOUDY    49  48  97 S5        30.37R FOG              
6HR MIN TEMP:  49; 6HR MAX TEMP:  50;                                

JBLM-FT LEWIS  CLOUDY    49  49 100 S9        30.38R                  
6HR MIN TEMP:  46; 6HR MAX TEMP:  54;                                

TACOMA NARROWS CLOUDY    49  46  90 S7        30.39R                  
6HR MIN TEMP:  48; 6HR MAX TEMP:  52;                                

$$
 
WAZ001-503-506-510-514-515-150700-
NORTH INTERIOR
  
CITY           SKY/WX    TMP DP  RH WIND       PRES   REMARKS
BELLINGHAM     PTCLDY    51  47  86 S10       30.34S                  
6HR MIN TEMP:  50; 6HR MAX TEMP:  53;                                

FRIDAY HARBOR  CLEAR     47  46  97 SW3       30.36S                  
6HR MIN TEMP:  47; 6HR MAX TEMP:  53;                                

EASTSOUND      MOCLDY    52  50  93 SW13      30.34R                  
PORT ANGELES   FOG       42  41  96 SW5       30.36R VSB 1            
6HR MIN TEMP:  41; 6HR MAX TEMP:  55;                                

EDIZ HOOK      FAIR      47  46  96 SE3       30.36R                  
6HR MIN TEMP:  47; 6HR MAX TEMP:  54;                                

PORT TOWNSEND  FOG       41  41 100 CALM      30.36S VSB<1/4          
NAS WHIDBEY    MOCLDY    52  48  86 SE8       30.40S                  
6HR MIN TEMP:  50; 6HR MAX TEMP:  54; 6HR PCP: TRACE;                

ARLINGTON      FOG       44  43  96 CALM      30.37S VSB 1/4          
6HR MIN TEMP:  44; 6HR MAX TEMP:  50; 6HR PCP:  0.01;                

BURLINGTON     CLOUDY    46  46 100 CALM      30.37R FOG              
$$
 
WAZ020-022-039-040-504-511-512-150700-
SOUTHWEST INTERIOR
  
CITY           SKY/WX    TMP DP  RH WIND       PRES   REMARKS
SHELTON        CLOUDY    52  50  93 SW6       30.35S                  
6HR MIN TEMP:  49; 6HR MAX TEMP:  53;                                

OLYMPIA        CLOUDY    47  45  93 W3        30.40R FOG              
6HR MIN TEMP:  45; 6HR MAX TEMP:  50;                                

CHEHALIS       CLOUDY    45  45 100 SW5       30.41R FOG              
KELSO          CLOUDY    48  46  93 SE6       30.42R FOG              
6HR MIN TEMP:  48; 6HR MAX TEMP:  49;                                

VANCOUVER      CLOUDY    48  46  93 CALM      30.42R FOG              
6HR MIN TEMP:  46; 6HR MAX TEMP:  48;                                

SCAPPOOSE, OR  CLOUDY    47  45  93 N3        30.42R FOG              
6HR MIN TEMP:  46; 6HR MAX TEMP:  47; 6HR PCP: TRACE;                

PORTLAND, OR   CLOUDY    48  46  93 CALM      30.43R FOG              
6HR MIN TEMP:  46; 6HR MAX TEMP:  48;                                

$$
 
WAZ021-516-517-150700-
WASHINGTON COAST
  
CITY           SKY/WX    TMP DP  RH WIND       PRES   REMARKS
FORKS          FOG       46  46 100 CALM      30.36R VSB 1/4          
6HR MIN TEMP:  46; 6HR MAX TEMP:  55;                                

HOQUIAM        CLOUDY    51  51 100 S5        30.39R FOG              
6HR MIN TEMP:  51; 6HR MAX TEMP:  54;                                

ASTORIA, OR    CLOUDY    49  49 100 NE3       30.39R FOG              
6HR MIN TEMP:  49; 6HR MAX TEMP:  50;                                

$$
 
WAZ019-023-024-040-567>569-150700-
CASCADE MOUNTAINS AND COLUMBIA GORGE
  
CITY           SKY/WX    TMP DP  RH WIND       PRES   REMARKS
STAMPEDE PASS  NOT AVBL                                               
TROUTDALE, OR  CLOUDY    47  45  93 CALM      30.42R FOG              
6HR MIN TEMP:  46; 6HR MAX TEMP:  48;                                

HOOD RIVER, OR PTCLDY    41  39  93 CALM      30.39S FOG              
THE DALLES, OR CLOUDY    49  43  80 VRB6      30.38R                  
6HR MIN TEMP:  47; 6HR MAX TEMP:  52;                                

$$

WAZ026-027-041>044-520-521-150700-
EAST SLOPES
  
CITY           SKY/WX    TMP DP  RH WIND       PRES   REMARKS
OMAK           CLOUDY    32  30  92 S3        30.38R                  
6HR MIN TEMP:  32; 6HR MAX TEMP:  33;                                

WENATCHEE      CLOUDY    32  29  88 NW6       30.38R                  
6HR MIN TEMP:  32; 6HR MAX TEMP:  32;                                

ELLENSBURG     MOCLDY    41  35  79 N5        30.33R                  
6HR MIN TEMP:  38; 6HR MAX TEMP:  48;                                

YAKIMA         CLOUDY    27  24  89 CALM      30.38R FOG              
6HR MIN TEMP:  26; 6HR MAX TEMP:  35;                                

SUNNYSIDE ARPT CLOUDY    30  29  97 CALM      30.38  FOG              
6HR MIN TEMP:  29; 6HR MAX TEMP:  41;                                

YAKIMA TC      FAIR      30  28  94 CALM      30.35R FOG              
6HR MIN TEMP:  29; 6HR MAX TEMP:  34;                                

$$

WAZ028-034-035-150700-
COLUMBIA BASIN
  
CITY           SKY/WX    TMP DP  RH WIND       PRES   REMARKS
EPHRATA        CLOUDY    32  31  96 NE3       30.37R FOG              
6HR MIN TEMP:  32; 6HR MAX TEMP:  32;                                

MOSES LAKE     CLOUDY    32  29  88 N6        30.38R                  
6HR MIN TEMP:  32; 6HR MAX TEMP:  33;                                

PASCO          CLOUDY    32  29  88 NW5       30.40R                  
6HR MIN TEMP:  31; 6HR MAX TEMP:  45;                                

RICHLAND ARPT  CLOUDY    34  32  93 W6        30.40                   
6HR MIN TEMP:  32; 6HR MAX TEMP:  44;                                

HERMISTON, OR  CLOUDY    39  33  79 SE3       30.36R                  
6HR MIN TEMP:  38; 6HR MAX TEMP:  50;                                

$$

WAZ036>038-150700-
NORTHEAST WASHINGTON
  
CITY           SKY/WX    TMP DP  RH WIND       PRES   REMARKS
SPOKANE GEIGER CLOUDY    33  27  78 S5        30.31R                  
6HR MIN TEMP:  33; 6HR MAX TEMP:  38;                                

SPOKANE FELTS  PTCLDY    33  29  85 E3        30.33R                  
6HR MIN TEMP:  32; 6HR MAX TEMP:  44;                                

FAIRCHILD AFB  CLEAR     30  30 100 CALM      30.30R                  
6HR MIN TEMP:  30; 6HR MAX TEMP:  36;                                

COEURDALENE,ID PTCLDY    32  29  88 CALM      30.32R                  
6HR MIN TEMP:  30; 6HR MAX TEMP:  44;                                

DEER PARK      PTCLDY    26  24  92 NE5       30.32S                  
6HR MIN TEMP:  25; 6HR MAX TEMP:  38;                                

$$

WAZ029>033-150700-
SOUTHEAST WASHINGTON
  
CITY           SKY/WX    TMP DP  RH WIND       PRES   REMARKS
PULLMAN        CLOUDY    46  35  65 W10       30.34R                  
6HR MIN TEMP:  46; 6HR MAX TEMP:  49;                                

LEWISTON, ID   CLOUDY    47  33  58 SE3       30.33S                  
6HR MIN TEMP:  46; 6HR MAX TEMP:  49;                                

WALLA WALLA    CLOUDY    45  37  73 SW7       30.35S                  
6HR MIN TEMP:  44; 6HR MAX TEMP:  51;                                

PENDLETON, OR  CLOUDY    42  30  62 S8        30.36R                  
6HR MIN TEMP:  40; 6HR MAX TEMP:  49;                                

$$